Year,Month,Day,Hour,Minute,Value (Times are PST for windspeed in km/hr)
2014,10,22,00,00,23.30
2014,10,22,00,01,26.50
2014,10,22,00,02,22.40
2014,10,22,00,03,25.20
2014,10,22,00,04,20.30
2014,10,22,00,05,31.10
2014,10,22,00,06,27.00
2014,10,22,00,07,26.00
2014,10,22,00,08,29.00
2014,10,22,00,09,26.60
2014,10,22,00,10,21.00
2014,10,22,00,11,25.40
2014,10,22,00,12,20.20
2014,10,22,00,13,20.10
2014,10,22,00,14,22.00
2014,10,22,00,15,25.90
2014,10,22,00,16,19.30
2014,10,22,00,17,19.60
2014,10,22,00,18,21.70
2014,10,22,00,19,17.10
2014,10,22,00,20,18.90
2014,10,22,00,21,20.90
2014,10,22,00,22,26.00
2014,10,22,00,23,22.00
2014,10,22,00,24,24.40
2014,10,22,00,25,21.70
2014,10,22,00,26,19.50
2014,10,22,00,27,24.50
2014,10,22,00,28,28.20
2014,10,22,00,29,26.70
2014,10,22,00,30,24.00
2014,10,22,00,31,21.40
2014,10,22,00,32,13.60
2014,10,22,00,33,20.60
2014,10,22,00,34,17.90
2014,10,22,00,35,26.10
2014,10,22,00,36,27.10
2014,10,22,00,37,16.60
2014,10,22,00,38,23.60
2014,10,22,00,39,27.00
2014,10,22,00,40,19.90
2014,10,22,00,41,18.40
2014,10,22,00,42,19.10
2014,10,22,00,43,19.30
2014,10,22,00,44,17.10
2014,10,22,00,45,20.50
2014,10,22,00,46,15.70
2014,10,22,00,47,28.80
2014,10,22,00,48,24.30
2014,10,22,00,49,30.70
2014,10,22,00,50,25.70
2014,10,22,00,51,31.10
2014,10,22,00,52,19.10
2014,10,22,00,53,21.80
2014,10,22,00,54,24.10
2014,10,22,00,55,27.10
2014,10,22,00,56,23.30
2014,10,22,00,57,27.80
2014,10,22,00,58,23.30
2014,10,22,00,59,28.50
2014,10,22,01,00,27.40
2014,10,22,01,01,27.10
2014,10,22,01,02,24.70
2014,10,22,01,03,24.00
2014,10,22,01,04,27.50
2014,10,22,01,05,28.10
2014,10,22,01,06,20.20
2014,10,22,01,07,25.00
2014,10,22,01,08,16.20
2014,10,22,01,09,23.20
2014,10,22,01,10,15.40
2014,10,22,01,11,27.00
2014,10,22,01,12,27.10
2014,10,22,01,13,25.80
2014,10,22,01,14,19.30
2014,10,22,01,15,18.10
2014,10,22,01,16,25.10
2014,10,22,01,17,26.20
2014,10,22,01,18,28.10
2014,10,22,01,19,20.80
2014,10,22,01,20,18.30
2014,10,22,01,21,28.00
2014,10,22,01,22,22.40
2014,10,22,01,23,22.00
2014,10,22,01,24,19.80
2014,10,22,01,25,23.70
2014,10,22,01,26,24.70
2014,10,22,01,27,16.90
2014,10,22,01,28,21.20
2014,10,22,01,29,21.60
2014,10,22,01,30,26.80
2014,10,22,01,31,22.90
2014,10,22,01,32,28.70
2014,10,22,01,33,24.80
2014,10,22,01,34,21.20
2014,10,22,01,35,25.80
2014,10,22,01,36,24.30
2014,10,22,01,37,18.50
2014,10,22,01,38,20.20
2014,10,22,01,39,15.40
2014,10,22,01,40,17.40
2014,10,22,01,41,16.70
2014,10,22,01,42,20.60
2014,10,22,01,43,24.00
2014,10,22,01,44,15.90
2014,10,22,01,45,18.30
2014,10,22,01,46,15.80
2014,10,22,01,47,16.70
2014,10,22,01,48,16.40
2014,10,22,01,49,15.50
2014,10,22,01,50,22.10
2014,10,22,01,51,15.30
2014,10,22,01,52,16.40
2014,10,22,01,53,13.30
2014,10,22,01,54,15.00
2014,10,22,01,55,22.40
2014,10,22,01,56,15.40
2014,10,22,01,57,10.00
2014,10,22,01,58,19.60
2014,10,22,01,59,16.80
2014,10,22,02,00,20.80
2014,10,22,02,01,17.50
2014,10,22,02,02,14.30
2014,10,22,02,03,18.20
2014,10,22,02,04,16.70
2014,10,22,02,05,19.00
2014,10,22,02,06,20.40
2014,10,22,02,07,10.40
2014,10,22,02,08,13.80
2014,10,22,02,09,19.60
2014,10,22,02,10,14.90
2014,10,22,02,11,16.40
2014,10,22,02,12,14.40
2014,10,22,02,13,19.50
2014,10,22,02,14,19.10
2014,10,22,02,15,15.40
2014,10,22,02,16,19.90
2014,10,22,02,17,13.80
2014,10,22,02,18,18.70
2014,10,22,02,19,19.10
2014,10,22,02,20,14.60
2014,10,22,02,21,13.20
2014,10,22,02,22,20.30
2014,10,22,02,23,13.50
2014,10,22,02,24,15.70
2014,10,22,02,25,14.60
2014,10,22,02,26,10.50
2014,10,22,02,27,14.60
2014,10,22,02,28,16.40
2014,10,22,02,29,18.00
2014,10,22,02,30,18.40
2014,10,22,02,31,24.30
2014,10,22,02,32,16.50
2014,10,22,02,33,16.70
2014,10,22,02,34,16.40
2014,10,22,02,35,18.70
2014,10,22,02,36,12.20
2014,10,22,02,37,17.00
2014,10,22,02,38,15.10
2014,10,22,02,39,16.40
2014,10,22,02,40,18.10
2014,10,22,02,41,16.10
2014,10,22,02,42,16.10
2014,10,22,02,43,13.90
2014,10,22,02,44,10.40
2014,10,22,02,45,10.00
2014,10,22,02,46,12.10
2014,10,22,02,47,17.40
2014,10,22,02,48,11.30
2014,10,22,02,49,13.80
2014,10,22,02,50,11.90
2014,10,22,02,51,12.30
2014,10,22,02,52,8.10
2014,10,22,02,53,10.50
2014,10,22,02,54,6.40
2014,10,22,02,55,12.60
2014,10,22,02,56,13.10
2014,10,22,02,57,14.20
2014,10,22,02,58,12.50
2014,10,22,02,59,10.30
2014,10,22,03,00,7.40
2014,10,22,03,01,3.40
2014,10,22,03,02,10.20
2014,10,22,03,03,7.70
2014,10,22,03,04,7.60
2014,10,22,03,05,10.90
2014,10,22,03,06,7.40
2014,10,22,03,07,7.70
2014,10,22,03,08,8.50
2014,10,22,03,09,7.10
2014,10,22,03,10,5.30
2014,10,22,03,11,7.00
2014,10,22,03,12,9.50
2014,10,22,03,13,5.40
2014,10,22,03,14,5.20
2014,10,22,03,15,14.70
2014,10,22,03,16,7.70
2014,10,22,03,17,4.60
2014,10,22,03,18,5.50
2014,10,22,03,19,4.70
2014,10,22,03,20,4.30
2014,10,22,03,21,4.90
2014,10,22,03,22,5.80
2014,10,22,03,23,2.00
2014,10,22,03,24,4.50
2014,10,22,03,25,5.00
2014,10,22,03,26,2.30
2014,10,22,03,27,5.30
2014,10,22,03,28,2.80
2014,10,22,03,29,1.30
2014,10,22,03,30,2.20
2014,10,22,03,31,2.50
2014,10,22,03,32,2.00
2014,10,22,03,33,4.20
2014,10,22,03,34,3.40
2014,10,22,03,35,4.40
2014,10,22,03,36,2.10
2014,10,22,03,37,3.00
2014,10,22,03,38,2.50
2014,10,22,03,39,2.40
2014,10,22,03,40,2.50
2014,10,22,03,41,1.90
2014,10,22,03,42,2.20
2014,10,22,03,43,1.10
2014,10,22,03,44,0.60
2014,10,22,03,45,0.50
2014,10,22,03,46,2.50
2014,10,22,03,47,2.30
2014,10,22,03,48,1.30
2014,10,22,03,49,0.00
2014,10,22,03,50,0.20
2014,10,22,03,51,0.00
2014,10,22,03,52,0.00
2014,10,22,03,53,0.00
2014,10,22,03,54,0.00
2014,10,22,03,55,0.30
2014,10,22,03,56,0.20
2014,10,22,03,57,0.20
2014,10,22,03,58,0.00
2014,10,22,03,59,0.50
2014,10,22,04,00,0.20
2014,10,22,04,01,0.00
2014,10,22,04,02,0.00
2014,10,22,04,03,1.20
2014,10,22,04,04,3.40
2014,10,22,04,05,1.60
2014,10,22,04,06,1.40
2014,10,22,04,07,4.30
2014,10,22,04,08,1.30
2014,10,22,04,09,0.90
2014,10,22,04,10,3.60
2014,10,22,04,11,4.40
2014,10,22,04,12,3.50
2014,10,22,04,13,3.90
2014,10,22,04,14,4.70
2014,10,22,04,15,4.20
2014,10,22,04,16,4.70
2014,10,22,04,17,4.80
2014,10,22,04,18,3.50
2014,10,22,04,19,2.90
2014,10,22,04,20,2.20
2014,10,22,04,21,0.70
2014,10,22,04,22,0.30
2014,10,22,04,23,1.80
2014,10,22,04,24,4.00
2014,10,22,04,25,4.10
2014,10,22,04,26,3.90
2014,10,22,04,27,3.10
2014,10,22,04,28,2.30
2014,10,22,04,29,1.50
2014,10,22,04,30,0.80
2014,10,22,04,31,0.50
2014,10,22,04,32,1.40
2014,10,22,04,33,1.60
2014,10,22,04,34,2.00
2014,10,22,04,35,1.50
2014,10,22,04,36,1.50
2014,10,22,04,37,2.70
2014,10,22,04,38,4.20
2014,10,22,04,39,3.30
2014,10,22,04,40,1.80
2014,10,22,04,41,2.10
2014,10,22,04,42,1.90
2014,10,22,04,43,0.60
2014,10,22,04,44,0.30
2014,10,22,04,45,1.90
2014,10,22,04,46,1.50
2014,10,22,04,47,1.10
2014,10,22,04,48,0.80
2014,10,22,04,49,0.80
2014,10,22,04,50,1.10
2014,10,22,04,51,0.20
2014,10,22,04,52,0.00
2014,10,22,04,53,0.30
2014,10,22,04,54,0.70
2014,10,22,04,55,1.70
2014,10,22,04,56,3.20
2014,10,22,04,57,4.60
2014,10,22,04,58,5.10
2014,10,22,04,59,4.60
2014,10,22,05,00,3.80
2014,10,22,05,01,3.40
2014,10,22,05,02,3.70
2014,10,22,05,03,3.00
2014,10,22,05,04,2.20
2014,10,22,05,05,1.30
2014,10,22,05,06,0.50
2014,10,22,05,07,0.10
2014,10,22,05,08,0.00
2014,10,22,05,09,0.90
2014,10,22,05,10,1.10
2014,10,22,05,11,0.10
2014,10,22,05,12,1.60
2014,10,22,05,13,3.10
2014,10,22,05,14,2.60
2014,10,22,05,15,1.20
2014,10,22,05,16,2.00
2014,10,22,05,17,1.10
2014,10,22,05,18,2.50
2014,10,22,05,19,5.30
2014,10,22,05,20,4.50
2014,10,22,05,21,2.80
2014,10,22,05,22,2.60
2014,10,22,05,23,1.60
2014,10,22,05,24,0.80
2014,10,22,05,25,0.50
2014,10,22,05,26,2.60
2014,10,22,05,27,3.40
2014,10,22,05,28,4.20
2014,10,22,05,29,3.10
2014,10,22,05,30,2.00
2014,10,22,05,31,1.60
2014,10,22,05,32,1.30
2014,10,22,05,33,4.10
2014,10,22,05,34,3.40
2014,10,22,05,35,2.20
2014,10,22,05,36,1.70
2014,10,22,05,37,0.60
2014,10,22,05,38,0.00
2014,10,22,05,39,0.80
2014,10,22,05,40,0.70
2014,10,22,05,41,0.00
2014,10,22,05,42,0.00
2014,10,22,05,43,0.00
2014,10,22,05,44,0.10
2014,10,22,05,45,0.10
2014,10,22,05,46,0.10
2014,10,22,05,47,0.90
2014,10,22,05,48,2.80
2014,10,22,05,49,1.60
2014,10,22,05,50,0.60
2014,10,22,05,51,0.40
2014,10,22,05,52,2.40
2014,10,22,05,53,4.40
2014,10,22,05,54,2.50
2014,10,22,05,55,1.50
2014,10,22,05,56,0.70
2014,10,22,05,57,0.20
2014,10,22,05,58,0.50
2014,10,22,05,59,0.80
2014,10,22,06,00,0.30
2014,10,22,06,01,2.90
2014,10,22,06,02,3.20
2014,10,22,06,03,1.80
2014,10,22,06,04,1.50
2014,10,22,06,05,1.50
2014,10,22,06,06,0.60
2014,10,22,06,07,0.40
2014,10,22,06,08,0.10
2014,10,22,06,09,1.10
2014,10,22,06,10,1.30
2014,10,22,06,11,0.10
2014,10,22,06,12,0.10
2014,10,22,06,13,0.00
2014,10,22,06,14,0.20
2014,10,22,06,15,0.20
2014,10,22,06,16,0.00
2014,10,22,06,17,0.00
2014,10,22,06,18,0.00
2014,10,22,06,19,0.00
2014,10,22,06,20,0.00
2014,10,22,06,21,0.00
2014,10,22,06,22,0.00
2014,10,22,06,23,0.00
2014,10,22,06,24,0.00
2014,10,22,06,25,0.00
2014,10,22,06,26,0.00
2014,10,22,06,27,0.00
2014,10,22,06,28,0.00
2014,10,22,06,29,0.00
2014,10,22,06,30,0.00
2014,10,22,06,31,0.00
2014,10,22,06,32,0.00
2014,10,22,06,33,0.00
2014,10,22,06,34,0.00
2014,10,22,06,35,0.00
2014,10,22,06,36,0.00
2014,10,22,06,37,0.00
2014,10,22,06,38,0.00
2014,10,22,06,39,0.00
2014,10,22,06,40,0.00
2014,10,22,06,41,0.00
2014,10,22,06,42,0.00
2014,10,22,06,43,0.00
2014,10,22,06,44,0.00
2014,10,22,06,45,0.00
2014,10,22,06,46,0.00
2014,10,22,06,47,0.00
2014,10,22,06,48,0.00
2014,10,22,06,49,0.00
2014,10,22,06,50,0.00
2014,10,22,06,51,0.00
2014,10,22,06,52,0.00
2014,10,22,06,53,0.40
2014,10,22,06,54,0.80
2014,10,22,06,55,0.00
2014,10,22,06,56,0.00
2014,10,22,06,57,0.30
2014,10,22,06,58,0.60
2014,10,22,06,59,0.90
2014,10,22,07,00,1.30
2014,10,22,07,01,0.50
2014,10,22,07,02,1.10
2014,10,22,07,03,1.00
2014,10,22,07,04,1.10
2014,10,22,07,05,0.40
2014,10,22,07,06,0.20
2014,10,22,07,07,0.30
2014,10,22,07,08,0.00
2014,10,22,07,09,0.00
2014,10,22,07,10,0.00
2014,10,22,07,11,0.40
2014,10,22,07,12,0.10
2014,10,22,07,13,0.00
2014,10,22,07,14,0.40
2014,10,22,07,15,0.80
2014,10,22,07,16,1.10
2014,10,22,07,17,1.50
2014,10,22,07,18,1.50
2014,10,22,07,19,0.50
2014,10,22,07,20,0.00
2014,10,22,07,21,0.00
2014,10,22,07,22,0.00
2014,10,22,07,23,0.20
2014,10,22,07,24,0.00
2014,10,22,07,25,0.70
2014,10,22,07,26,1.20
2014,10,22,07,27,0.60
2014,10,22,07,28,0.60
2014,10,22,07,29,0.10
2014,10,22,07,30,0.00
2014,10,22,07,31,0.00
2014,10,22,07,32,0.00
2014,10,22,07,33,0.00
2014,10,22,07,34,0.00
2014,10,22,07,35,0.10
2014,10,22,07,36,0.00
2014,10,22,07,37,0.00
2014,10,22,07,38,0.00
2014,10,22,07,39,0.00
2014,10,22,07,40,0.00
2014,10,22,07,41,0.00
2014,10,22,07,42,0.00
2014,10,22,07,43,0.00
2014,10,22,07,44,0.00
2014,10,22,07,45,0.00
2014,10,22,07,46,0.00
2014,10,22,07,47,0.00
2014,10,22,07,48,0.20
2014,10,22,07,49,0.40
2014,10,22,07,50,1.10
2014,10,22,07,51,1.00
2014,10,22,07,52,0.40
2014,10,22,07,53,0.30
2014,10,22,07,54,0.00
2014,10,22,07,55,0.00
2014,10,22,07,56,0.20
2014,10,22,07,57,0.60
2014,10,22,07,58,0.80
2014,10,22,07,59,0.70
2014,10,22,08,00,0.20
2014,10,22,08,01,0.10
2014,10,22,08,02,0.40
2014,10,22,08,03,0.20
2014,10,22,08,04,0.00
2014,10,22,08,05,0.20
2014,10,22,08,06,0.20
2014,10,22,08,07,0.40
2014,10,22,08,08,0.20
2014,10,22,08,09,0.00
2014,10,22,08,10,0.00
2014,10,22,08,11,0.00
2014,10,22,08,12,0.00
2014,10,22,08,13,0.00
2014,10,22,08,14,0.00
2014,10,22,08,15,0.20
2014,10,22,08,16,0.00
2014,10,22,08,17,0.00
2014,10,22,08,18,0.00
2014,10,22,08,19,0.00
2014,10,22,08,20,0.00
2014,10,22,08,21,0.00
2014,10,22,08,22,0.00
2014,10,22,08,23,0.00
2014,10,22,08,24,0.00
2014,10,22,08,25,0.10
2014,10,22,08,26,1.20
2014,10,22,08,27,0.60
2014,10,22,08,28,0.40
2014,10,22,08,29,0.10
2014,10,22,08,30,0.10
2014,10,22,08,31,0.10
2014,10,22,08,32,0.40
2014,10,22,08,33,0.20
2014,10,22,08,34,0.90
2014,10,22,08,35,2.30
2014,10,22,08,36,3.40
2014,10,22,08,37,3.50
2014,10,22,08,38,2.80
2014,10,22,08,39,1.90
2014,10,22,08,40,0.20
2014,10,22,08,41,0.00
2014,10,22,08,42,0.00
2014,10,22,08,43,0.00
2014,10,22,08,44,0.10
2014,10,22,08,45,0.50
2014,10,22,08,46,0.90
2014,10,22,08,47,0.50
2014,10,22,08,48,0.30
2014,10,22,08,49,1.00
2014,10,22,08,50,0.20
2014,10,22,08,51,1.20
2014,10,22,08,52,0.20
2014,10,22,08,53,0.00
2014,10,22,08,54,0.00
2014,10,22,08,55,0.00
2014,10,22,08,56,0.00
2014,10,22,08,57,0.00
2014,10,22,08,58,0.00
2014,10,22,08,59,0.00
2014,10,22,09,00,0.00
2014,10,22,09,01,0.00
2014,10,22,09,02,0.00
2014,10,22,09,03,0.00
2014,10,22,09,04,0.60
2014,10,22,09,05,0.10
2014,10,22,09,06,0.10
2014,10,22,09,07,0.00
2014,10,22,09,08,0.00
2014,10,22,09,09,0.00
2014,10,22,09,10,0.00
2014,10,22,09,11,0.00
2014,10,22,09,12,1.40
2014,10,22,09,13,2.60
2014,10,22,09,14,2.60
2014,10,22,09,15,1.60
2014,10,22,09,16,1.40
2014,10,22,09,17,1.40
2014,10,22,09,18,1.60
2014,10,22,09,19,2.00
2014,10,22,09,20,2.30
2014,10,22,09,21,1.60
2014,10,22,09,22,2.70
2014,10,22,09,23,3.70
2014,10,22,09,24,3.30
2014,10,22,09,25,3.40
2014,10,22,09,26,3.50
2014,10,22,09,27,3.60
2014,10,22,09,28,2.20
2014,10,22,09,29,2.70
2014,10,22,09,30,2.60
2014,10,22,09,31,2.80
2014,10,22,09,32,3.00
2014,10,22,09,33,3.00
2014,10,22,09,34,2.70
2014,10,22,09,35,2.30
2014,10,22,09,36,1.80
2014,10,22,09,37,2.10
2014,10,22,09,38,0.90
2014,10,22,09,39,0.20
2014,10,22,09,40,0.20
2014,10,22,09,41,1.10
2014,10,22,09,42,1.50
2014,10,22,09,43,2.00
2014,10,22,09,44,2.50
2014,10,22,09,45,4.50
2014,10,22,09,46,4.30
2014,10,22,09,47,5.20
2014,10,22,09,48,4.30
2014,10,22,09,49,3.40
2014,10,22,09,50,1.60
2014,10,22,09,51,0.40
2014,10,22,09,52,0.00
2014,10,22,09,53,0.00
2014,10,22,09,54,0.00
2014,10,22,09,55,0.00
2014,10,22,09,56,0.00
2014,10,22,09,57,0.00
2014,10,22,09,58,0.00
2014,10,22,09,59,0.00
2014,10,22,10,00,0.00
2014,10,22,10,01,0.00
2014,10,22,10,02,0.00
2014,10,22,10,03,0.30
2014,10,22,10,04,0.50
2014,10,22,10,05,0.00
2014,10,22,10,06,0.20
2014,10,22,10,07,2.20
2014,10,22,10,08,1.80
2014,10,22,10,09,1.10
2014,10,22,10,10,1.80
2014,10,22,10,11,1.00
2014,10,22,10,12,0.30
2014,10,22,10,13,0.20
2014,10,22,10,14,0.30
2014,10,22,10,15,1.00
2014,10,22,10,16,0.50
2014,10,22,10,17,0.30
2014,10,22,10,18,0.50
2014,10,22,10,19,0.80
2014,10,22,10,20,1.30
2014,10,22,10,21,3.00
2014,10,22,10,22,4.50
2014,10,22,10,23,3.40
2014,10,22,10,24,3.10
2014,10,22,10,25,0.20
2014,10,22,10,26,1.50
2014,10,22,10,27,2.00
2014,10,22,10,28,2.50
2014,10,22,10,29,0.60
2014,10,22,10,30,0.90
2014,10,22,10,31,1.80
2014,10,22,10,32,0.20
2014,10,22,10,33,1.00
2014,10,22,10,34,0.20
2014,10,22,10,35,0.20
2014,10,22,10,36,0.50
2014,10,22,10,37,1.40
2014,10,22,10,38,1.10
2014,10,22,10,39,1.40
2014,10,22,10,40,0.50
2014,10,22,10,41,0.20
2014,10,22,10,42,0.30
2014,10,22,10,43,1.30
2014,10,22,10,44,1.60
2014,10,22,10,45,0.20
2014,10,22,10,46,0.00
2014,10,22,10,47,3.00
2014,10,22,10,48,2.20
2014,10,22,10,49,2.30
2014,10,22,10,50,4.30
2014,10,22,10,51,3.20
2014,10,22,10,52,2.00
2014,10,22,10,53,1.10
2014,10,22,10,54,0.70
2014,10,22,10,55,0.30
2014,10,22,10,56,1.20
2014,10,22,10,57,1.10
2014,10,22,10,58,0.60
2014,10,22,10,59,1.50
2014,10,22,11,00,0.60
2014,10,22,11,01,0.20
2014,10,22,11,02,0.90
2014,10,22,11,03,1.80
2014,10,22,11,04,1.00
2014,10,22,11,05,1.40
2014,10,22,11,06,1.90
2014,10,22,11,07,1.00
2014,10,22,11,08,2.00
2014,10,22,11,09,1.30
2014,10,22,11,10,0.50
2014,10,22,11,11,1.90
2014,10,22,11,12,1.70
2014,10,22,11,13,2.00
2014,10,22,11,14,1.80
2014,10,22,11,15,1.30
2014,10,22,11,16,0.60
2014,10,22,11,17,0.30
2014,10,22,11,18,1.20
2014,10,22,11,19,1.60
2014,10,22,11,20,1.50
2014,10,22,11,21,0.50
2014,10,22,11,22,1.30
2014,10,22,11,23,1.10
2014,10,22,11,24,0.60
2014,10,22,11,25,0.00
2014,10,22,11,26,0.10
2014,10,22,11,27,0.10
2014,10,22,11,28,0.60
2014,10,22,11,29,1.50
2014,10,22,11,30,1.40
2014,10,22,11,31,0.20
2014,10,22,11,32,0.10
2014,10,22,11,33,0.00
2014,10,22,11,34,0.00
2014,10,22,11,35,0.00
2014,10,22,11,36,0.00
2014,10,22,11,37,0.00
2014,10,22,11,38,0.00
2014,10,22,11,39,0.00
2014,10,22,11,40,0.00
2014,10,22,11,41,0.00
2014,10,22,11,42,0.70
2014,10,22,11,43,0.80
2014,10,22,11,44,0.00
2014,10,22,11,45,0.10
2014,10,22,11,46,0.00
2014,10,22,11,47,0.00
2014,10,22,11,48,0.00
2014,10,22,11,49,0.00
2014,10,22,11,50,0.00
2014,10,22,11,51,0.40
2014,10,22,11,52,1.30
2014,10,22,11,53,1.40
2014,10,22,11,54,1.60
2014,10,22,11,55,1.30
2014,10,22,11,56,1.10
2014,10,22,11,57,1.30
2014,10,22,11,58,1.30
2014,10,22,11,59,2.80
2014,10,22,12,00,4.40
2014,10,22,12,01,2.60
2014,10,22,12,02,1.10
2014,10,22,12,03,0.10
2014,10,22,12,04,0.00
2014,10,22,12,05,0.00
2014,10,22,12,06,0.00
2014,10,22,12,07,0.30
2014,10,22,12,08,0.60
2014,10,22,12,09,0.00
2014,10,22,12,10,0.50
2014,10,22,12,11,0.20
2014,10,22,12,12,0.90
2014,10,22,12,13,0.50
2014,10,22,12,14,0.30
2014,10,22,12,15,0.70
2014,10,22,12,16,1.60
2014,10,22,12,17,0.30
2014,10,22,12,18,0.50
2014,10,22,12,19,0.30
2014,10,22,12,20,0.20
2014,10,22,12,21,0.00
2014,10,22,12,22,0.10
2014,10,22,12,23,0.50
2014,10,22,12,24,1.40
2014,10,22,12,25,1.80
2014,10,22,12,26,3.60
2014,10,22,12,27,3.00
2014,10,22,12,28,2.70
2014,10,22,12,29,2.80
2014,10,22,12,30,0.90
2014,10,22,12,31,0.10
2014,10,22,12,32,1.30
2014,10,22,12,33,1.80
2014,10,22,12,34,0.30
2014,10,22,12,35,1.40
2014,10,22,12,36,0.40
2014,10,22,12,37,0.00
2014,10,22,12,38,0.00
2014,10,22,12,39,1.10
2014,10,22,12,40,1.20
2014,10,22,12,41,0.60
2014,10,22,12,42,0.30
2014,10,22,12,43,0.20
2014,10,22,12,44,0.00
2014,10,22,12,45,0.40
2014,10,22,12,46,0.00
2014,10,22,12,47,0.00
2014,10,22,12,48,0.00
2014,10,22,12,49,0.30
2014,10,22,12,50,1.50
2014,10,22,12,51,1.10
2014,10,22,12,52,2.50
2014,10,22,12,53,3.40
2014,10,22,12,54,3.70
2014,10,22,12,55,3.50
2014,10,22,12,56,4.30
2014,10,22,12,57,4.20
2014,10,22,12,58,4.30
2014,10,22,12,59,4.80
2014,10,22,13,00,2.90
2014,10,22,13,01,3.00
2014,10,22,13,02,3.40
2014,10,22,13,03,3.80
2014,10,22,13,04,3.50
2014,10,22,13,05,3.50
2014,10,22,13,06,2.70
2014,10,22,13,07,2.60
2014,10,22,13,08,3.20
2014,10,22,13,09,2.70
2014,10,22,13,10,2.40
2014,10,22,13,11,1.90
2014,10,22,13,12,1.70
2014,10,22,13,13,0.60
2014,10,22,13,14,0.80
2014,10,22,13,15,0.40
2014,10,22,13,16,1.60
2014,10,22,13,17,3.40
2014,10,22,13,18,3.30
2014,10,22,13,19,3.20
2014,10,22,13,20,1.70
2014,10,22,13,21,1.50
2014,10,22,13,22,1.50
2014,10,22,13,23,2.10
2014,10,22,13,24,1.90
2014,10,22,13,25,1.30
2014,10,22,13,26,1.10
2014,10,22,13,27,1.60
2014,10,22,13,28,3.20
2014,10,22,13,29,3.10
2014,10,22,13,30,3.00
2014,10,22,13,31,3.60
2014,10,22,13,32,2.40
2014,10,22,13,33,2.20
2014,10,22,13,34,2.10
2014,10,22,13,35,1.30
2014,10,22,13,36,1.90
2014,10,22,13,37,2.50
2014,10,22,13,38,2.00
2014,10,22,13,39,1.00
2014,10,22,13,40,1.10
2014,10,22,13,41,1.40
2014,10,22,13,42,1.60
2014,10,22,13,43,0.20
2014,10,22,13,44,0.80
2014,10,22,13,45,0.90
2014,10,22,13,46,0.50
2014,10,22,13,47,0.20
2014,10,22,13,48,0.50
2014,10,22,13,49,1.20
2014,10,22,13,50,1.20
2014,10,22,13,51,1.10
2014,10,22,13,52,1.50
2014,10,22,13,53,0.90
2014,10,22,13,54,0.30
2014,10,22,13,55,0.40
2014,10,22,13,56,0.00
2014,10,22,13,57,1.00
2014,10,22,13,58,0.20
2014,10,22,13,59,1.60
2014,10,22,14,00,0.40
2014,10,22,14,01,0.20
2014,10,22,14,02,0.00
2014,10,22,14,03,0.00
2014,10,22,14,04,0.00
2014,10,22,14,05,0.00
2014,10,22,14,06,0.00
2014,10,22,14,07,0.00
2014,10,22,14,08,0.00
2014,10,22,14,09,1.80
2014,10,22,14,10,1.30
2014,10,22,14,11,0.70
2014,10,22,14,12,1.60
2014,10,22,14,13,2.30
2014,10,22,14,14,1.90
2014,10,22,14,15,2.00
2014,10,22,14,16,1.60
2014,10,22,14,17,0.10
2014,10,22,14,18,0.00
2014,10,22,14,19,0.20
2014,10,22,14,20,0.80
2014,10,22,14,21,0.50
2014,10,22,14,22,2.60
2014,10,22,14,23,2.30
2014,10,22,14,24,2.30
2014,10,22,14,25,1.60
2014,10,22,14,26,1.20
2014,10,22,14,27,2.00
2014,10,22,14,28,3.20
2014,10,22,14,29,2.50
2014,10,22,14,30,3.20
2014,10,22,14,31,3.00
2014,10,22,14,32,3.20
2014,10,22,14,33,2.70
2014,10,22,14,34,2.70
2014,10,22,14,35,2.10
2014,10,22,14,36,0.60
2014,10,22,14,37,1.40
2014,10,22,14,38,0.80
2014,10,22,14,39,0.40
2014,10,22,14,40,1.40
2014,10,22,14,41,1.00
2014,10,22,14,42,0.90
2014,10,22,14,43,0.20
2014,10,22,14,44,1.00
2014,10,22,14,45,2.00
2014,10,22,14,46,3.50
2014,10,22,14,47,3.30
2014,10,22,14,48,2.70
2014,10,22,14,49,3.80
2014,10,22,14,50,3.90
2014,10,22,14,51,2.30
2014,10,22,14,52,2.50
2014,10,22,14,53,3.20
2014,10,22,14,54,4.10
2014,10,22,14,55,3.20
2014,10,22,14,56,5.20
2014,10,22,14,57,4.20
2014,10,22,14,58,2.40
2014,10,22,14,59,1.60
2014,10,22,15,00,2.70
2014,10,22,15,01,2.00
2014,10,22,15,02,1.00
2014,10,22,15,03,2.10
2014,10,22,15,04,2.40
2014,10,22,15,05,4.10
2014,10,22,15,06,3.40
2014,10,22,15,07,4.00
2014,10,22,15,08,3.80
2014,10,22,15,09,2.20
2014,10,22,15,10,3.50
2014,10,22,15,11,5.90
2014,10,22,15,12,3.70
2014,10,22,15,13,2.10
2014,10,22,15,14,3.70
2014,10,22,15,15,3.00
2014,10,22,15,16,1.80
2014,10,22,15,17,3.90
2014,10,22,15,18,3.00
2014,10,22,15,19,2.60
2014,10,22,15,20,1.40
2014,10,22,15,21,1.50
2014,10,22,15,22,4.90
2014,10,22,15,23,7.00
2014,10,22,15,24,4.80
2014,10,22,15,25,3.00
2014,10,22,15,26,5.30
2014,10,22,15,27,4.60
2014,10,22,15,28,3.80
2014,10,22,15,29,3.00
2014,10,22,15,30,3.00
2014,10,22,15,31,2.30
2014,10,22,15,32,2.10
2014,10,22,15,33,2.30
2014,10,22,15,34,4.10
2014,10,22,15,35,5.00
2014,10,22,15,36,6.80
2014,10,22,15,37,4.30
2014,10,22,15,38,5.60
2014,10,22,15,39,4.10
2014,10,22,15,40,1.90
2014,10,22,15,41,3.50
2014,10,22,15,42,4.20
2014,10,22,15,43,2.50
2014,10,22,15,44,1.80
2014,10,22,15,45,2.60
2014,10,22,15,46,0.90
2014,10,22,15,47,0.20
2014,10,22,15,48,1.60
2014,10,22,15,49,2.20
2014,10,22,15,50,2.70
2014,10,22,15,51,3.90
2014,10,22,15,52,2.00
2014,10,22,15,53,2.70
2014,10,22,15,54,1.70
2014,10,22,15,55,0.10
2014,10,22,15,56,0.00
2014,10,22,15,57,0.00
2014,10,22,15,58,0.80
2014,10,22,15,59,0.50
2014,10,22,16,00,1.50
2014,10,22,16,01,1.00
2014,10,22,16,02,0.10
2014,10,22,16,03,0.80
2014,10,22,16,04,0.80
2014,10,22,16,05,0.80
2014,10,22,16,06,0.20
2014,10,22,16,07,0.50
2014,10,22,16,08,1.10
2014,10,22,16,09,2.20
2014,10,22,16,10,3.40
2014,10,22,16,11,4.30
2014,10,22,16,12,4.80
2014,10,22,16,13,3.80
2014,10,22,16,14,4.30
2014,10,22,16,15,3.90
2014,10,22,16,16,4.10
2014,10,22,16,17,3.40
2014,10,22,16,18,0.70
2014,10,22,16,19,0.60
2014,10,22,16,20,0.70
2014,10,22,16,21,2.20
2014,10,22,16,22,1.40
2014,10,22,16,23,2.40
2014,10,22,16,24,1.60
2014,10,22,16,25,1.10
2014,10,22,16,26,1.80
2014,10,22,16,27,1.70
2014,10,22,16,28,2.30
2014,10,22,16,29,1.20
2014,10,22,16,30,2.30
2014,10,22,16,31,4.70
2014,10,22,16,32,3.50
2014,10,22,16,33,2.90
2014,10,22,16,34,2.00
2014,10,22,16,35,0.40
2014,10,22,16,36,1.60
2014,10,22,16,37,2.10
2014,10,22,16,38,2.70
2014,10,22,16,39,3.00
2014,10,22,16,40,2.90
2014,10,22,16,41,0.70
2014,10,22,16,42,0.90
2014,10,22,16,43,1.90
2014,10,22,16,44,1.00
2014,10,22,16,45,1.30
2014,10,22,16,46,0.60
2014,10,22,16,47,1.00
2014,10,22,16,48,1.40
2014,10,22,16,49,2.80
2014,10,22,16,50,1.90
2014,10,22,16,51,1.50
2014,10,22,16,52,0.40
2014,10,22,16,53,0.00
2014,10,22,16,54,0.00
2014,10,22,16,55,0.00
2014,10,22,16,56,0.20
2014,10,22,16,57,2.30
2014,10,22,16,58,1.40
2014,10,22,16,59,0.70
2014,10,22,17,00,0.00
2014,10,22,17,01,0.00
2014,10,22,17,02,0.20
2014,10,22,17,03,0.90
2014,10,22,17,04,2.10
2014,10,22,17,05,1.50
2014,10,22,17,06,2.10
2014,10,22,17,07,2.70
2014,10,22,17,08,2.60
2014,10,22,17,09,4.00
2014,10,22,17,10,3.50
2014,10,22,17,11,2.50
2014,10,22,17,12,1.40
2014,10,22,17,13,2.10
2014,10,22,17,14,1.10
2014,10,22,17,15,0.60
2014,10,22,17,16,0.60
2014,10,22,17,17,0.10
2014,10,22,17,18,0.20
2014,10,22,17,19,0.30
2014,10,22,17,20,1.10
2014,10,22,17,21,1.00
2014,10,22,17,22,1.90
2014,10,22,17,23,1.50
2014,10,22,17,24,3.50
2014,10,22,17,25,2.70
2014,10,22,17,26,2.70
2014,10,22,17,27,1.80
2014,10,22,17,28,2.10
2014,10,22,17,29,2.30
2014,10,22,17,30,1.50
2014,10,22,17,31,1.20
2014,10,22,17,32,1.30
2014,10,22,17,33,1.30
2014,10,22,17,34,0.90
2014,10,22,17,35,0.20
2014,10,22,17,36,0.70
2014,10,22,17,37,1.10
2014,10,22,17,38,2.70
2014,10,22,17,39,1.50
2014,10,22,17,40,1.40
2014,10,22,17,41,1.70
2014,10,22,17,42,1.00
2014,10,22,17,43,0.90
2014,10,22,17,44,1.00
2014,10,22,17,45,0.80
2014,10,22,17,46,1.60
2014,10,22,17,47,1.50
2014,10,22,17,48,1.30
2014,10,22,17,49,2.50
2014,10,22,17,50,1.60
2014,10,22,17,51,1.10
2014,10,22,17,52,1.90
2014,10,22,17,53,2.70
2014,10,22,17,54,2.30
2014,10,22,17,55,1.50
2014,10,22,17,56,0.50
2014,10,22,17,57,2.70
2014,10,22,17,58,1.30